CDT,Max TemperatureF,Mean TemperatureF,Min TemperatureF,Max Dew PointF,MeanDew PointF,Min DewpointF,Max Humidity, Mean Humidity, Min Humidity, Max Sea Level PressureIn, Mean Sea Level PressureIn, Min Sea Level PressureIn, Max VisibilityMiles, Mean VisibilityMiles, Min VisibilityMiles, Max Wind SpeedMPH, Mean Wind SpeedMPH, Max Gust SpeedMPH,PrecipitationIn, CloudCover, Events, WindDirDegrees
2013-5-1,69,66,64,64,62,59,94,88,78,30.05,30.01,29.93,10,8,2,14,7,23,0.51,7,Rain,76
2013-5-2,72,67,62,64,61,56,94,81,73,30.05,30.00,29.96,10,9,2,15,10,21,0.01,8,Rain-Hail,71
2013-5-3,71,60,50,63,58,47,94,83,61,29.97,29.89,29.84,10,8,1,18,11,31,0.54,8,Rain,92
2013-5-4,64,54,44,46,42,33,100,78,31,29.93,29.90,29.87,10,7,2,21,10,28,0.73,5,Rain,319
2013-5-5,66,52,39,50,43,38,93,69,44,29.94,29.87,29.83,10,10,10,16,5,23,0.00,2,,256
2013-5-6,64,54,45,55,50,42,100,84,56,29.96,29.93,29.91,10,9,2,13,6,21,0.07,6,Rain,239
2013-5-7,73,64,54,55,53,50,97,78,44,30.03,29.98,29.91,10,10,8,10,5,17,0.00,4,,288
2013-5-8,79,64,50,60,54,47,90,69,42,30.10,30.06,30.00,10,10,10,8,1,,0.00,1,,257
2013-5-9,82,68,54,62,57,53,100,74,41,30.14,30.09,30.04,10,8,0,7,1,,0.00,1,Fog,208
2013-5-10,77,70,62,64,62,59,97,80,58,30.12,30.03,29.94,10,9,4,10,4,,0.00,3,,176
2013-5-11,75,68,62,66,63,61,100,81,66,30.02,29.98,29.94,10,9,4,8,4,17,0.00,4,Rain,225
2013-5-12,75,65,55,63,54,47,90,65,44,30.12,30.06,29.98,10,10,10,9,5,17,0.00,1,,328
2013-5-13,75,60,46,49,41,31,86,56,23,30.27,30.20,30.13,10,10,10,9,5,16,0.00,0,,344
2013-5-14,82,65,48,58,50,45,90,59,30,30.27,30.20,30.14,10,10,10,7,2,,0.00,0,,233
2013-5-15,84,70,55,64,57,52,90,61,37,30.21,30.13,30.04,10,10,10,10,3,,0.00,0,,208
2013-5-16,82,72,61,64,60,56,84,67,49,30.09,30.03,29.96,10,10,10,9,3,21,0.00,1,,179
2013-5-17,82,74,66,67,65,63,97,78,53,30.08,30.03,29.98,10,9,4,10,5,18,0.00,4,,175
2013-5-18,82,76,69,71,69,66,94,82,65,30.10,30.05,30.00,10,9,4,10,5,,0.02,6,Rain-Thunderstorm,184
2013-5-19,84,76,68,72,68,66,96,80,55,30.08,30.04,29.98,10,9,1,12,4,,0.00,4,,182
2013-5-20,87,78,69,70,68,66,94,76,53,30.06,30.01,29.96,10,9,5,10,6,17,0.00,2,,158
2013-5-21,89,78,66,68,65,62,100,73,42,30.03,29.96,29.86,10,8,0,8,2,,0.00,2,Fog,176
2013-5-22,82,76,69,68,67,65,96,79,56,30.00,29.95,29.88,10,8,1,9,5,,0.00,4,,224
2013-5-23,88,78,69,68,63,58,87,64,37,30.03,29.99,29.94,10,10,10,10,5,,0.00,1,,292
2013-5-24,86,75,63,63,54,45,87,54,24,30.19,30.11,30.01,10,10,10,17,7,23,0.00,0,,1
2013-5-25,82,66,50,62,50,45,89,65,27,30.27,30.21,30.16,10,10,10,8,3,,0.00,0,,30
2013-5-26,88,72,55,66,56,51,90,62,30,30.22,30.17,30.12,10,10,10,7,1,16,0.00,0,,208
2013-5-27,88,75,62,67,58,51,94,65,29,30.20,30.14,30.06,10,9,2,9,2,16,0.00,3,,176
2013-5-28,89,75,61,65,61,54,84,61,39,30.13,30.09,30.03,10,10,10,10,3,17,0.00,2,,148
2013-5-29,90,78,66,68,66,63,90,69,42,30.12,30.07,30.02,10,10,10,14,5,25,0.00,3,Hail,129
2013-5-30,89,80,71,70,66,63,88,69,43,30.15,30.07,30.01,10,10,10,14,5,21,0.00,5,,121
2013-5-31,86,78,71,70,68,65,91,73,51,30.12,30.06,30.00,10,10,10,12,5,16,0.00,4,,137